Skip Page Navigation
NASA JPL Caltech
NASA Logo - Jet Propulsion Laboratory + View the NASA Portal
+ Center for Near-Earth Object Studies
JPL Home Earth Solar System Stars & Galaxies Technology
JPL Solar System Dynamics
BODIES ORBITS EPHEMERIDES TOOLS PHYSICAL DATA DISCOVERY FAQ SITE MAP
IMPORTANT: The SSD Announcement email list is now available. Major changes are coming in the near future, including possible hostname and/or URL changes. To be notified of such changes, subscribe to this email list.

Please visit this page for more details.


JPL Small-Body Database Browser
Search: [ help ]  
52026 (2002 OA24)
Classification: Main-belt Asteroid          SPK-ID: 2052026
Ephemeris | Orbit Diagram | Orbital Elements | Mission Design | Physical Parameters | Discovery Circumstances ]

[ show orbit diagram ]
Orbital Elements at Epoch 2459000.5 (2020-May-31.0) TDB
Reference: JPL 16 (heliocentric ecliptic J2000)
 Element Value Uncertainty (1-sigma)   Units 
e .02562829386122523 4.4818e-08  
a 2.805538668593815 1.9454e-08 au
q 2.733637499156063 1.2334e-07 au
i 11.72853897562596 4.9652e-06 deg
node 276.6202396271257 2.866e-05 deg
peri 216.3247952171922 0.0001209 deg
M 165.6851691926839 0.00011636 deg
tp 2458210.542093659404
(2018-Apr-02.04209366)
0.00055602 TDB
period 1716.417031580472
4.70
1.7853e-05
4.888e-08
d
yr
n .2097392378287653 2.1816e-09 deg/d
Q 2.877439838031568 1.9953e-08 au
  Orbit Determination Parameters
   # obs. used (total)      1521  
   data-arc span      7529 days (20.61 yr)  
   first obs. used      1998-12-17  
   last obs. used      2019-07-29  
   planetary ephem.      DE431  
   SB-pert. ephem.      SB431-N16  
   condition code      0  
   norm. resid. RMS      .48632  
   source      ORB  
   producer      Otto Matic  
   solution date      2020-Feb-23 10:19:57  

Additional Information
 Earth MOID = 1.75641 au 
 Jupiter MOID = 2.24835 au 
 T_jup = 3.292 
[ show covariance matrix ]

Ephemeris | Orbit Diagram | Orbital Elements | Mission Design | Physical Parameters | Discovery Circumstances ]

Physical Parameter Table
Parameter Symbol Value Units Sigma Reference Notes
absolute magnitude H 13.8   n/a MPO395491  

52026 (2002 OA24)          Discovered 2002-Jul-28 by NEAT at Haleakala
Reference: 20021120/Numbers.arcLast Updated: 2004-04-19
Ephemeris | Orbit Diagram | Orbital Elements | Mission Design | Physical Parameters | Discovery Circumstances ]
ABOUT SSD CREDITS/AWARDS PRIVACY/COPYRIGHT GLOSSARY LINKS
FirstGov 2020-Apr-05 23:05 UT
(server date/time)  
NASA Home Page
Site Manager:   Ryan S. Park
Webmaster  Alan B. Chamberlin